| time (UTC) | temp F | wind direction | speed MPH | gust MPH | rain 1hr in | rain 24hr in | rain mn in | humidity % | barometer mb |
| 20260502220010 | 73 | 36 | 2.0 | 7.0 | 0.00 | 0.00 | 0.00 | 41 | 1020.1 |
| 20260502214506 | 73 | 315 | 1.0 | 5.0 | 0.00 | 0.04 | 0.00 | 38 | 1020.1 |
| 20260502213017 | 74 | 79 | 2.0 | 9.0 | 0.00 | 0.04 | 0.00 | 42 | 1020.3 |
| 20260502211504 | 73 | 75 | 3.0 | 8.0 | 0.00 | 0.04 | 0.00 | 47 | 1020.5 |
| 20260502210003 | 74 | 343 | 2.0 | 8.0 | 0.00 | 0.04 | 0.00 | 43 | 1020.8 |
| 20260502204502 | 74 | 69 | 2.0 | 7.0 | 0.00 | 0.10 | 0.00 | 41 | 1021.0 |
| 20260502203002 | 73 | 318 | 2.0 | 14.0 | 0.00 | 0.10 | 0.00 | 42 | 1021.2 |
| 20260502201600 | 73 | 63 | 2.0 | 9.0 | 0.00 | 0.10 | 0.00 | 41 | 1021.3 |
| 20260502200059 | 73 | 40 | 2.0 | 8.0 | 0.00 | 0.10 | 0.00 | 42 | 1021.4 |
| 20260502194600 | 73 | 13 | 1.0 | 9.0 | 0.00 | 0.10 | 0.00 | 45 | 1021.4 |
| 20260502193055 | 73 | 103 | 2.0 | 7.0 | 0.00 | 0.10 | 0.00 | 45 | 1021.5 |
| 20260502191557 | 72 | 113 | 2.0 | 7.0 | 0.00 | 0.10 | 0.00 | 49 | 1021.6 |
| 20260502190050 | 71 | 9 | 2.0 | 10.0 | 0.00 | 0.10 | 0.00 | 46 | 1021.7 |
| 20260502184547 | 71 | 81 | 2.0 | 9.0 | 0.00 | 0.15 | 0.00 | 54 | 1022.0 |
| 20260502183044 | 70 | 38 | 3.0 | 9.0 | 0.00 | 0.15 | 0.00 | 52 | 1022.1 |
| 20260502181557 | 70 | 76 | 6.0 | 14.0 | 0.00 | 0.15 | 0.00 | 54 | 1022.3 |
| 20260502163023 | 66 | 107 | 1.0 | 7.0 | 0.00 | 0.37 | 0.00 | 59 | 1023.2 |
| 20260502161517 | 65 | 44 | 2.0 | 8.0 | 0.00 | 0.37 | 0.00 | 59 | 1023.4 |
| 20260502151501 | 61 | 90 | 1.0 | 9.0 | 0.00 | 0.39 | 0.00 | 67 | 1023.1 |
| 20260502123020 | 48 | 313 | 1.0 | 7.0 | 0.00 | 0.57 | 0.00 | 73 | 1021.0 |
| 20260502121518 | 48 | 323 | 1.0 | 6.0 | 0.00 | 0.57 | 0.00 | 73 | 1020.8 |
| 20260502114514 | 48 | 318 | 0.0 | 4.0 | 0.00 | 0.67 | 0.00 | 73 | 1020.3 |
| 20260502113013 | 48 | 310 | 0.0 | 7.0 | 0.00 | 0.67 | 0.00 | 72 | 1020.2 |
| 20260502111510 | 48 | 320 | 1.0 | 8.0 | 0.00 | 0.67 | 0.00 | 72 | 1020.1 |
| 20260502110008 | 48 | 360 | 0.0 | 6.0 | 0.00 | 0.67 | 0.00 | 71 | 1019.9 |
| 20260502104507 | 48 | 323 | 0.0 | 9.0 | 0.00 | 0.93 | 0.00 | 71 | 1019.9 |
| 20260502103011 | 48 | 282 | 0.0 | 6.0 | 0.00 | 0.93 | 0.00 | 71 | 1019.7 |
| 20260502101502 | 48 | 307 | 0.0 | 4.0 | 0.00 | 0.93 | 0.00 | 71 | 1019.7 |
| 20260502071535 | 50 | 325 | 0.0 | 6.0 | 0.00 | 1.48 | 0.00 | 72 | 1017.9 |
| 20260502070031 | 50 | 323 | 1.0 | 6.0 | 0.00 | 1.48 | 0.00 | 72 | 1018.0 |
| 20260502064541 | 50 | 324 | 0.0 | 6.0 | 0.00 | 1.72 | 0.00 | 73 | 1018.3 |
| 20260502063033 | 50 | 317 | 0.0 | 6.0 | 0.00 | 1.72 | 0.00 | 73 | 1018.2 |
| 20260502061526 | 50 | 333 | 0.0 | 5.0 | 0.00 | 1.72 | 0.00 | 73 | 1018.2 |
| 20260502060026 | 50 | 346 | 0.0 | 6.0 | 0.00 | 1.72 | 0.00 | 74 | 1018.1 |
| 20260502054525 | 50 | 323 | 0.0 | 8.0 | 0.00 | 1.77 | 0.00 | 74 | 1018.1 |
| 20260502053020 | 51 | 23 | 1.0 | 8.0 | 0.00 | 1.77 | 0.00 | 74 | 1018.1 |
| 20260502051520 | 51 | 347 | 2.0 | 8.0 | 0.00 | 1.77 | 0.00 | 75 | 1018.2 |
| 20260502050022 | 51 | 11 | 1.0 | 7.0 | 0.00 | 1.77 | 0.00 | 74 | 1018.3 |
| 20260502044514 | 51 | 344 | 1.0 | 8.0 | 0.00 | 1.77 | 1.77 | 74 | 1017.9 |
| 20260502043013 | 51 | 360 | 1.0 | 8.0 | 0.00 | 1.77 | 1.77 | 74 | 1017.9 |
| 20260502041512 | 51 | 5 | 1.0 | 9.0 | 0.00 | 1.77 | 1.77 | 74 | 1017.9 |
| 20260502040017 | 52 | 15 | 1.0 | 9.0 | 0.00 | 1.77 | 1.77 | 74 | 1017.8 |
| 20260502034510 | 52 | 348 | 1.0 | 11.0 | 0.00 | 1.77 | 1.77 | 73 | 1017.7 |
| 20260502033006 | 52 | 331 | 2.0 | 14.0 | 0.00 | 1.77 | 1.77 | 72 | 1017.7 |
| 20260502031504 | 51 | 257 | 1.0 | 10.0 | 0.00 | 1.77 | 1.77 | 72 | 1017.5 |
| 20260502030003 | 51 | 323 | 1.0 | 12.0 | 0.00 | 1.77 | 1.77 | 72 | 1017.3 |
| 20260502024559 | 51 | 25 | 1.0 | 7.0 | 0.00 | 1.77 | 1.77 | 72 | 1017.0 |
| 20260502023059 | 51 | 316 | 2.0 | 11.0 | 0.00 | 1.77 | 1.77 | 72 | 1016.8 |
| 20260502021554 | 51 | 13 | 3.0 | 12.0 | 0.00 | 1.77 | 1.77 | 72 | 1016.3 |
| 20260502020108 | 52 | 22 | 2.0 | 9.0 | 0.00 | 1.77 | 1.77 | 72 | 1016.1 |
| 20260502014553 | 52 | 36 | 2.0 | 10.0 | 0.00 | 1.77 | 1.77 | 71 | 1015.9 |
| 20260502013047 | 53 | 331 | 2.0 | 11.0 | 0.00 | 1.77 | 1.77 | 70 | 1015.9 |
| 20260502011550 | 53 | 10 | 3.0 | 13.0 | 0.00 | 1.77 | 1.77 | 69 | 1015.6 |
| 20260502010039 | 54 | 65 | 2.0 | 14.0 | 0.00 | 1.77 | 1.77 | 67 | 1015.2 |
| 20260502004538 | 54 | 27 | 4.0 | 16.0 | 0.00 | 1.77 | 1.77 | 66 | 1014.9 |
| 20260502003035 | 54 | 338 | 0.0 | 22.0 | 0.00 | 1.77 | 1.77 | 66 | 1014.8 |
| 20260502001554 | 54 | 317 | 1.0 | 13.0 | 0.00 | 1.77 | 1.77 | 66 | 1014.4 |
| 20260502000034 | 55 | 30 | 5.0 | 14.0 | 0.00 | 1.77 | 1.77 | 65 | 1014.0 |
| 20260501234529 | 55 | 19 | 2.0 | 10.0 | 0.00 | 1.77 | 1.77 | 64 | 1013.8 |
| 20260501233026 | 56 | 346 | 1.0 | 8.0 | 0.00 | 1.77 | 1.77 | 64 | 1013.4 |
| 20260501231525 | 56 | 57 | 2.0 | 11.0 | 0.00 | 1.77 | 1.77 | 64 | 1013.2 |
| 20260501230026 | 56 | 323 | 1.0 | 9.0 | 0.00 | 1.77 | 1.77 | 64 | 1012.9 |
| 20260501224520 | 57 | 15 | 1.0 | 16.0 | 0.00 | 1.77 | 1.77 | 63 | 1012.8 |
| 20260501223020 | 56 | 305 | 2.0 | 11.0 | 0.00 | 1.77 | 1.77 | 64 | 1013.2 |
| 20260501221515 | 57 | 302 | 3.0 | 11.0 | 0.02 | 1.77 | 1.77 | 63 | 1013.0 |